Location: Hawks Ness
(60.2333°N, 1.1667°W)
Time: 15:49:20
(UTC+00:00)

ERBS - Pass Details

Date: 22 October 2019
Orbit: 413 x 429 km, 57.0° (Epoch: 17 November)

Event Time Altitude Azimuth Distance (km) Brightness Sun altitude
Exits shadow 05:52:27 10° 249° (WSW) 1,491 4.5 -9.1°
Maximum altitude 05:55:40 48° 175° (S) 568 3.0 -8.7°
Drops below altitude 10° 05:58:58 10° 100° (E) 1,525 6.8 -8.3°
Sets 06:01:06 0° 95° (E) 2,394 8.6 -8.0°
